PBO Station Position Time Series. Reference Frame : NAM14
Format Version,1.1.0
4-character ID,P403
Station name,FloeQuaryGWA2005
Begin Date, 2005-09-14
End Date, 2019-10-07
Release Date, 2019-10-08
Reference position, 48.0623219842 North Latitude, -124.1408749544 East Longitude, 284.68251 meters elevation,
Date, North (mm), East (mm), Vertical (mm), North Std. Deviation (mm), East Std. Deviation (mm),              Vertical Std. Deviation (mm), Quality,
2005-09-14,0.00, 0.00, 0.00, 2.42, 1.63, 7.33, repro,
2005-09-15,-0.42, 0.55, -2.86, 2.41, 1.63, 7.31, repro,
2005-09-16,-2.13, 0.49, -2.69, 2.39, 1.63, 7.29, repro,
2005-09-17,-2.23, -0.42, -7.89, 2.28, 1.56, 7.08, repro,
2005-09-18,-1.18, -1.86, -2.59, 2.28, 1.56, 7.07, repro,
2005-09-19,-1.06, 0.19, -2.94, 2.37, 1.58, 7.28, repro,
2005-09-20,-1.59, 0.27, -1.71, 2.30, 1.55, 7.06, repro,
2005-09-21,-2.93, -1.12, -5.48, 2.32, 1.58, 7.25, repro,
2005-09-22,-2.92, -0.20, -5.67, 2.28, 1.56, 7.07, repro,
2005-09-23,-0.15, -1.57, -9.52, 2.33, 1.62, 7.38, repro,
2005-09-24,-1.07, -0.83, -3.94, 2.35, 1.61, 7.23, repro,
2005-09-25,-1.63, -2.00, 3.99, 2.34, 1.60, 7.22, repro,
2005-09-26,-1.57, -2.11, -3.01, 2.34, 1.59, 7.19, repro,
2005-09-27,-3.32, -0.98, -0.97, 2.35, 1.60, 7.21, repro,
2005-09-28,-4.08, -0.38, 0.91, 2.38, 1.61, 7.28, repro,
2005-09-29,-4.25, -1.31, 3.49, 2.39, 1.61, 7.28, repro,
2005-09-30,-2.43, -0.90, -0.21, 2.31, 1.57, 7.10, repro,
2005-10-01,-3.13, -1.90, 3.82, 2.29, 1.54, 6.99, repro,
2005-10-02,-2.74, -1.24, 1.87, 2.32, 1.59, 7.15, repro,
2005-10-03,-2.82, -0.45, -6.79, 2.33, 1.61, 7.24, repro,
2005-10-04,-3.18, -1.15, -9.84, 2.36, 1.60, 7.27, repro,
2005-10-05,-2.27, -0.08, -13.62, 2.32, 1.58, 7.17, repro,
2005-10-06,-2.11, 0.02, -10.61, 2.32, 1.56, 7.09, repro,
2005-10-07,-2.23, -0.85, -6.93, 2.32, 1.57, 7.11, repro,
2005-10-08,-4.50, -1.39, -5.99, 2.29, 1.55, 7.02, repro,
2005-10-09,-2.92, -0.87, -5.68, 2.29, 1.56, 7.04, repro,
2005-10-10,-4.84, -0.61, -16.29, 2.30, 1.58, 7.15, repro,
2005-10-11,-2.00, -1.17, -10.79, 2.34, 1.62, 7.21, repro,
2005-10-12,-3.14, -1.51, -5.08, 2.36, 1.62, 7.26, repro,
2005-10-13,-5.28, -2.05, 0.56, 2.36, 1.61, 7.36, repro,
2005-10-14,-4.74, -1.29, 1.15, 2.30, 1.57, 7.05, repro,
2005-10-15,-4.61, -2.18, -3.40, 2.29, 1.57, 7.09, repro,
2005-10-16,-3.28, -0.69, 1.51, 2.36, 1.59, 7.39, repro,
2005-10-17,-3.64, -0.80, 1.17, 2.32, 1.58, 7.15, repro,
2005-10-18,-2.37, -0.21, -4.57, 2.47, 1.72, 7.68, repro,
2005-10-19,-3.15, -0.31, -0.04, 2.34, 1.61, 7.22, repro,
2005-10-20,-4.34, 0.37, -9.03, 2.36, 1.59, 7.14, repro,
2005-10-21,-1.37, 0.78, -1.29, 2.33, 1.60, 7.30, repro,
2005-10-22,-1.47, 0.24, -10.50, 2.30, 1.56, 7.10, repro,
2005-10-23,-2.72, -0.64, -2.23, 2.32, 1.56, 7.09, repro,
2005-10-24,-3.27, -2.29, -12.05, 2.35, 1.61, 7.22, repro,
2005-10-25,-3.40, -3.11, -15.06, 2.33, 1.62, 7.23, repro,
2005-10-26,-2.53, -1.56, -7.82, 2.39, 1.67, 7.41, repro,
2005-10-27,-1.64, -0.20, -14.15, 2.34, 1.60, 7.33, repro,
2005-10-28,-6.86, -1.49, 0.47, 2.33, 1.57, 7.17, repro,
2005-10-29,-2.03, -0.64, -1.67, 2.36, 1.61, 7.25, repro,
2005-10-30,-0.93, -0.39, -0.81, 2.31, 1.57, 7.14, repro,
2005-10-31,-6.88, -0.80, -8.37, 2.43, 1.67, 7.49, repro,
2005-11-01,-2.89, -0.04, -8.34, 2.51, 1.75, 7.92, repro,
2005-11-02,-3.14, -1.07, -0.97, 2.42, 1.67, 7.46, repro,
2005-11-03,-3.16, -1.56, -2.45, 2.36, 1.61, 7.18, repro,
2005-11-04,-3.62, -0.47, 2.36, 2.48, 1.71, 7.69, repro,
2005-11-05,-3.00, 0.22, -9.16, 2.42, 1.67, 7.42, repro,
2005-11-06,-1.93, -0.73, -8.70, 2.41, 1.68, 7.42, repro,
2005-11-07,-0.97, -1.31, -15.60, 2.47, 1.73, 7.65, repro,
2005-11-08,-2.54, 0.50, -14.67, 2.45, 1.71, 7.56, repro,
2005-11-09,-2.85, -0.08, -9.55, 2.47, 1.72, 7.65, repro,
2005-11-10,-3.34, -1.49, -12.39, 2.58, 1.75, 7.99, repro,
2005-11-11,-4.61, -2.10, -4.28, 2.41, 1.67, 7.50, repro,
2005-11-12,-2.46, 0.81, -1.97, 2.32, 1.62, 7.16, repro,
2005-11-13,-1.65, 0.15, -11.85, 2.49, 1.71, 7.59, repro,
2005-11-14,-1.58, 0.99, -16.59, 2.44, 1.69, 7.55, repro,
2005-11-15,-2.25, 0.80, -19.04, 2.30, 1.56, 7.09, repro,
2005-11-16,-0.95, -1.42, -28.66, 2.32, 1.59, 7.21, repro,
2005-11-17,-1.85, -0.02, -15.48, 2.29, 1.56, 7.13, repro,
2005-11-18,-3.20, -0.51, -18.08, 2.29, 1.56, 7.11, repro,
2005-11-19,-1.45, 0.30, -16.21, 2.30, 1.56, 7.11, repro,
2005-11-20,-1.09, -1.06, -20.32, 2.33, 1.58, 7.24, repro,
2005-11-21,-2.87, -1.24, -18.75, 2.41, 1.65, 7.53, repro,
2005-11-22,-1.99, -1.73, -17.41, 2.40, 1.69, 7.56, repro,
2005-11-23,-3.12, -0.49, -11.74, 2.32, 1.59, 7.26, repro,
2005-11-24,-5.81, -1.02, -11.18, 2.32, 1.57, 7.17, repro,
2005-11-25,-2.62, -0.25, -4.79, 2.32, 1.58, 7.17, repro,
2005-11-26,-4.15, -1.02, -1.47, 2.41, 1.66, 7.59, repro,
2005-11-27,-2.20, 1.91, -11.18, 2.36, 1.63, 7.43, repro,
2005-11-28,-0.99, -0.84, -8.46, 2.40, 1.66, 7.56, repro,
2005-11-29,-4.78, -0.75, -11.95, 2.31, 1.58, 7.18, repro,
2005-11-30,-3.78, -0.98, -14.98, 2.30, 1.58, 7.13, repro,
2005-12-01,-1.45, 0.57, -9.15, 2.31, 1.57, 7.10, repro,
2005-12-02,-2.39, 0.11, -4.71, 2.31, 1.58, 7.16, repro,
2005-12-03,-2.03, -0.10, -11.79, 2.31, 1.59, 7.18, repro,
2005-12-04,-1.30, 0.57, -19.02, 2.28, 1.55, 7.04, repro,
2005-12-05,-1.61, 1.02, -22.39, 2.30, 1.58, 7.14, repro,
2005-12-06,-1.50, 1.60, -13.36, 2.28, 1.55, 7.03, repro,
2005-12-07,-2.37, 2.12, -7.18, 2.35, 1.62, 7.32, repro,
2005-12-08,-2.67, 0.84, -11.55, 2.35, 1.63, 7.35, repro,
2005-12-09,-3.18, 0.03, -16.76, 2.33, 1.59, 7.21, repro,
2005-12-10,-2.87, 1.40, -14.31, 2.27, 1.55, 7.02, repro,
2005-12-11,-2.60, -0.23, -18.53, 2.29, 1.55, 7.05, repro,
2005-12-12,-1.88, 0.76, -8.99, 2.28, 1.54, 7.02, repro,
2005-12-13,-2.65, 0.46, -12.37, 2.28, 1.55, 7.05, repro,
2005-12-14,-1.43, 0.29, -16.81, 2.36, 1.61, 7.32, repro,
2005-12-21,-1.61, 6.72, 28.45, 11.33, 8.71, 39.93, repro,
2005-12-22,-5.87, -2.54, -5.37, 2.38, 1.69, 7.35, repro,
2005-12-23,-3.91, -1.69, -8.89, 2.40, 1.67, 7.28, repro,
2005-12-24,-11.68, -4.03, -17.69, 2.49, 1.74, 7.80, repro,
2005-12-25,-6.22, -0.82, -19.16, 2.39, 1.66, 7.39, repro,
2005-12-26,-4.60, -1.33, -11.60, 2.37, 1.65, 7.32, repro,
2005-12-27,-5.83, -1.09, -5.68, 2.42, 1.69, 7.46, repro,
2005-12-28,-3.34, 0.64, -10.91, 2.36, 1.63, 7.24, repro,
2005-12-29,-3.90, 0.85, -9.06, 2.45, 1.71, 7.70, repro,
2005-12-30,-2.84, 1.53, -14.70, 2.53, 1.81, 8.08, repro,
2005-12-31,-2.17, -2.08, -2.76, 2.49, 1.74, 7.79, repro,
2006-01-01,-3.81, -0.72, -5.98, 2.43, 1.70, 7.53, repro,
2006-01-02,-3.26, -1.69, -2.56, 2.40, 1.65, 7.19, repro,
2006-01-03,-4.52, 0.68, -12.20, 2.64, 1.91, 8.27, repro,
2006-01-04,-3.50, -0.01, -17.91, 2.54, 1.84, 8.12, repro,
2006-01-05,-5.08, -0.39, -17.60, 2.41, 1.72, 7.64, repro,
2006-01-06,-6.01, -2.41, -17.78, 2.43, 1.75, 7.73, repro,
2006-01-07,-1.70, -0.44, -16.98, 2.36, 1.65, 7.26, repro,
2006-01-08,-2.87, 0.57, -11.03, 2.40, 1.69, 7.53, repro,
2006-01-09,-5.18, 0.06, -15.34, 2.50, 1.77, 7.96, repro,
2006-01-10,-2.20, -0.02, -7.33, 2.44, 1.76, 7.78, repro,
2006-01-11,-1.21, -0.75, -9.76, 2.41, 1.72, 7.52, repro,
2006-01-12,-0.21, -0.06, -14.71, 2.43, 1.71, 7.43, repro,
2006-01-13,-6.88, -0.57, -17.65, 2.48, 1.76, 7.99, repro,
2006-01-14,-2.49, -1.05, -15.08, 2.34, 1.60, 7.14, repro,
2006-01-15,-1.57, 0.44, -17.28, 2.34, 1.60, 7.15, repro,
2006-01-16,-1.55, 0.05, -14.69, 2.45, 1.77, 7.71, repro,
2006-01-17,-2.76, -1.64, -17.12, 2.37, 1.65, 7.24, repro,
2006-01-18,-1.05, 0.26, -9.98, 2.33, 1.60, 7.12, repro,
2006-01-19,-2.30, 1.04, -15.77, 2.37, 1.60, 7.25, repro,
2006-01-20,-1.54, 0.50, -19.05, 2.36, 1.61, 7.28, repro,
2006-01-21,-0.81, 0.56, -18.61, 2.34, 1.61, 7.19, repro,
2006-01-22,-1.78, 0.24, -20.64, 2.32, 1.58, 7.02, repro,
2006-01-23,0.19, -0.60, -17.79, 2.31, 1.56, 6.97, repro,
2006-01-24,-1.24, -1.31, -20.18, 2.36, 1.62, 7.19, repro,
2006-01-25,-7.23, -1.82, -16.91, 2.27, 1.55, 7.00, repro,
2006-01-26,-3.15, -0.37, -18.28, 2.25, 1.53, 6.93, repro,
2006-01-27,-3.28, -0.73, -22.07, 2.27, 1.54, 6.96, repro,
2006-01-28,-2.94, -1.06, -11.79, 2.25, 1.54, 6.93, repro,
2006-01-29,-2.65, 1.16, -17.18, 2.25, 1.52, 6.87, repro,
2006-01-30,-4.75, 1.17, -12.63, 2.25, 1.53, 6.91, repro,
2006-01-31,-3.12, 0.74, -14.05, 2.25, 1.53, 6.95, repro,
2006-02-01,-4.62, -0.15, -11.09, 2.27, 1.54, 6.96, repro,
2006-02-02,-4.50, -1.24, -4.61, 2.27, 1.54, 6.93, repro,
2006-02-03,-1.87, 0.81, -18.14, 2.27, 1.53, 6.91, repro,
2006-02-04,-7.06, 0.55, -15.68, 2.26, 1.52, 6.92, repro,
2006-02-05,-2.62, 1.88, -18.63, 2.28, 1.54, 7.03, repro,
2006-02-06,-1.39, 1.86, -17.83, 2.28, 1.53, 7.02, repro,
2006-02-07,-1.20, 1.63, -26.41, 2.26, 1.52, 6.93, repro,
2006-02-08,2.78, 0.49, -31.85, 2.28, 1.52, 7.01, repro,
2006-02-09,-0.68, 0.93, -21.37, 2.33, 1.54, 7.03, repro,
2006-02-10,-1.87, 0.72, -16.92, 2.42, 1.57, 7.16, repro,
2006-02-11,-1.56, 0.37, -20.60, 2.29, 1.53, 7.06, repro,
2006-02-12,1.02, 1.51, -23.27, 2.27, 1.52, 6.97, repro,
2006-02-13,-0.70, -0.10, -25.98, 2.28, 1.53, 7.02, repro,
2006-02-14,-1.81, 1.55, -16.57, 2.25, 1.51, 6.92, repro,
2006-02-15,1.41, 1.30, -21.60, 2.27, 1.51, 6.94, repro,
2006-02-16,0.02, 2.27, -22.15, 2.31, 1.52, 7.05, repro,
2006-02-17,-0.13, 1.81, -21.43, 2.28, 1.53, 7.03, repro,
2006-02-18,-2.21, -0.50, -22.86, 2.30, 1.54, 7.01, repro,
2006-02-19,0.33, 0.84, -16.98, 2.30, 1.53, 7.02, repro,
2006-02-20,-2.02, 1.54, -11.32, 2.27, 1.52, 6.94, repro,
2006-02-21,-2.10, 1.47, -13.41, 2.29, 1.53, 7.00, repro,
2006-02-22,-1.43, 3.16, -14.86, 2.28, 1.53, 6.99, repro,
2006-02-23,-1.33, 1.20, -18.25, 2.28, 1.53, 7.01, repro,
2006-02-24,0.78, 1.16, -17.60, 2.28, 1.53, 7.03, repro,
2006-02-25,-0.59, 1.70, -17.03, 2.28, 1.52, 6.98, repro,
2006-02-26,-1.80, 1.74, -16.41, 2.27, 1.52, 6.94, repro,
2006-02-27,-5.15, 0.15, -6.13, 2.31, 1.53, 7.06, repro,
2006-02-28,-1.44, 2.31, -11.16, 2.33, 1.55, 7.10, repro,
2006-03-01,-3.88, 1.60, -7.04, 2.40, 1.58, 7.28, repro,
2006-03-02,-3.67, 1.54, -14.48, 2.27, 1.52, 6.97, repro,
2006-03-03,0.22, 0.27, -11.00, 2.32, 1.55, 7.14, repro,
2006-03-04,1.32, 1.45, -12.57, 2.29, 1.53, 6.99, repro,
2006-03-05,-2.21, 0.19, -15.15, 2.28, 1.54, 7.01, repro,
2006-03-06,-1.89, -1.20, -16.54, 2.26, 1.52, 6.96, repro,
2006-03-07,-1.93, 0.42, -16.47, 2.26, 1.52, 6.91, repro,
2006-03-08,-2.27, 1.83, -15.96, 2.26, 1.53, 6.97, repro,
2006-03-09,-2.50, 2.47, -4.41, 2.26, 1.54, 6.98, repro,
2006-03-10,1.84, -0.40, -7.91, 2.28, 1.54, 7.01, repro,
2006-03-11,0.28, -0.59, -9.10, 2.32, 1.54, 7.07, repro,
2006-03-12,0.84, 1.59, -14.30, 2.32, 1.55, 7.08, repro,
2006-03-13,3.15, 2.08, -16.32, 2.31, 1.53, 7.04, repro,
2006-03-14,3.13, -0.98, -12.04, 2.30, 1.54, 7.05, repro,
2006-03-15,-2.54, 1.54, -18.07, 2.34, 1.56, 7.17, repro,
2006-03-16,-1.03, 0.39, -23.67, 2.41, 1.60, 7.39, repro,
2006-03-17,-0.98, -0.27, -22.26, 2.39, 1.60, 7.37, repro,
2006-03-18,-0.73, 0.91, -23.51, 2.32, 1.56, 7.16, repro,
2006-03-19,2.33, 2.77, -16.86, 2.33, 1.55, 7.15, repro,
2006-03-20,3.50, 2.14, -15.15, 2.31, 1.56, 7.16, repro,
2006-03-21,0.72, 1.28, -11.85, 2.33, 1.57, 7.21, repro,
2006-03-22,-3.26, 0.33, -24.82, 2.33, 1.58, 7.17, repro,
2006-03-23,-7.05, -0.82, -20.58, 2.37, 1.59, 7.23, repro,
2006-03-24,-4.68, -1.15, -21.27, 2.37, 1.58, 7.17, repro,
2006-03-25,2.43, 1.76, -8.55, 2.35, 1.58, 7.15, repro,
2006-03-26,-0.47, -0.33, -21.34, 2.36, 1.60, 7.21, repro,
2006-03-27,1.73, 1.07, -18.87, 2.36, 1.59, 7.19, repro,
2006-03-28,2.20, 1.22, -14.17, 2.30, 1.56, 7.04, repro,
2006-03-29,2.74, 2.74, -14.64, 2.24, 1.55, 6.98, repro,
2006-03-30,0.56, -0.25, -14.84, 2.22, 1.53, 6.88, repro,
2006-03-31,3.08, -0.09, -12.70, 2.22, 1.54, 6.94, repro,
2006-04-01,2.71, -0.97, -18.00, 2.24, 1.54, 6.96, repro,
2006-04-02,3.28, -2.31, -19.02, 2.24, 1.55, 6.97, repro,
2006-04-03,-0.90, 0.34, -17.46, 2.24, 1.56, 6.97, repro,
2006-04-04,2.26, 2.47, -14.81, 2.24, 1.54, 6.95, repro,
2006-04-05,3.11, 3.50, -10.19, 2.23, 1.55, 6.94, repro,
2006-04-06,-0.43, -0.11, -16.58, 2.27, 1.58, 7.18, repro,
2006-04-07,1.50, 2.25, -22.09, 2.35, 1.59, 7.30, repro,
2006-04-08,3.04, 0.56, -15.61, 2.31, 1.55, 7.08, repro,
2006-04-09,-1.65, -1.95, -17.28, 2.23, 1.55, 6.99, repro,
2006-04-10,0.74, 0.14, -15.47, 2.21, 1.54, 6.91, repro,
2006-04-11,2.10, -0.20, -17.58, 2.29, 1.59, 7.25, repro,
2006-04-12,0.34, 1.21, -20.36, 2.28, 1.58, 7.26, repro,
2006-04-13,0.76, 1.39, -17.11, 2.24, 1.54, 6.98, repro,
2006-04-14,-3.97, 0.63, -10.39, 2.24, 1.55, 6.99, repro,
2006-04-15,-1.80, -0.88, -6.72, 2.28, 1.59, 7.17, repro,
2006-04-16,-1.04, -1.82, -12.29, 2.24, 1.56, 7.07, repro,
2006-04-17,2.56, 0.20, -10.73, 2.24, 1.54, 6.99, repro,
2006-04-18,1.13, 0.00, -18.41, 2.23, 1.53, 6.95, repro,
2006-04-19,3.56, 0.97, -19.87, 2.23, 1.53, 6.96, repro,
2006-04-20,-0.86, -0.81, -15.09, 2.29, 1.58, 7.16, repro,
2006-04-21,-0.93, 0.52, -17.77, 2.22, 1.54, 6.99, repro,
2006-04-22,4.45, 1.94, -19.13, 2.23, 1.54, 7.02, repro,
2006-04-23,5.66, 2.95, -16.91, 2.27, 1.58, 7.14, repro,
2006-04-24,3.36, 3.19, -17.78, 2.27, 1.58, 7.12, repro,
2006-04-25,4.07, 3.17, -12.56, 2.28, 1.59, 7.16, repro,
2006-04-26,-0.61, 2.18, -14.51, 2.30, 1.59, 7.22, repro,
2006-04-27,2.20, 3.17, -13.48, 2.34, 1.59, 7.28, repro,
2006-04-28,5.36, 3.53, -18.03, 2.30, 1.55, 7.12, repro,
2006-04-29,1.46, 1.75, -13.63, 2.23, 1.53, 6.96, repro,
2006-04-30,0.93, 3.15, -17.89, 2.23, 1.53, 6.98, repro,
2006-05-01,0.43, -0.02, -17.75, 2.23, 1.54, 6.99, repro,
2006-05-02,2.51, 0.54, -12.76, 2.23, 1.55, 7.03, repro,
2006-05-03,5.48, 1.31, -13.20, 2.23, 1.54, 7.04, repro,
2006-05-04,3.62, 2.55, -12.43, 2.24, 1.54, 7.00, repro,
2006-05-05,1.70, 2.57, -13.02, 2.23, 1.54, 6.98, repro,
2006-05-06,-0.36, 2.10, -16.42, 2.24, 1.54, 7.03, repro,
2006-05-07,-1.56, 1.42, -14.61, 2.22, 1.53, 6.96, repro,
2006-05-08,-0.04, 1.97, -11.59, 2.23, 1.55, 7.05, repro,
2006-05-09,3.90, 1.77, -12.13, 2.30, 1.57, 7.08, repro,
2006-05-10,3.77, 3.25, -18.19, 2.24, 1.53, 6.99, repro,
2006-05-11,-1.04, 2.09, -16.61, 2.24, 1.55, 7.05, repro,
2006-05-12,-1.24, 0.49, -16.69, 2.22, 1.54, 6.99, repro,
2006-05-13,4.15, 1.92, -20.48, 2.24, 1.55, 7.07, repro,
2006-05-14,3.09, 3.21, -15.20, 2.22, 1.54, 7.02, repro,
2006-05-15,5.00, 3.80, -19.82, 2.23, 1.54, 6.98, repro,
2006-05-16,5.84, 2.01, -15.69, 2.24, 1.58, 7.20, repro,
2006-05-17,2.98, 2.93, -15.59, 2.26, 1.58, 7.26, repro,
2006-05-18,3.15, 2.75, -10.99, 2.23, 1.55, 7.00, repro,
2006-05-19,3.36, 2.38, -10.68, 2.31, 1.58, 7.16, repro,
2006-05-20,-1.03, 0.44, -4.97, 2.32, 1.57, 7.13, repro,
2006-05-21,1.64, 1.86, -5.42, 2.44, 1.64, 7.36, repro,
2006-05-22,-1.25, -0.48, -9.74, 2.33, 1.61, 7.35, repro,
2006-05-23,-4.65, -1.16, -3.68, 2.49, 1.68, 7.44, repro,
2006-05-24,-3.75, 2.52, -12.91, 2.29, 1.58, 7.15, repro,
2006-05-25,-2.47, 0.15, -14.33, 2.35, 1.62, 7.34, repro,
2006-05-26,-2.04, -1.25, -16.38, 2.36, 1.62, 7.31, repro,
2006-05-27,-1.09, -0.63, -12.32, 2.32, 1.58, 7.18, repro,
2006-05-28,-1.63, 0.20, -7.22, 2.29, 1.58, 7.15, repro,
2006-05-29,-0.73, 0.09, -12.83, 2.29, 1.58, 7.14, repro,
2006-05-30,0.41, 1.14, -16.07, 2.30, 1.57, 7.14, repro,
2006-05-31,3.98, 2.16, -18.90, 2.31, 1.57, 7.13, repro,
2006-06-01,2.49, -4.06, -15.20, 2.32, 1.58, 7.14, repro,
2006-06-02,-5.45, -6.24, -11.20, 2.44, 1.65, 7.55, repro,
2006-06-03,2.29, 0.70, -9.00, 2.34, 1.61, 7.29, repro,
2006-06-04,-0.45, -0.74, -6.78, 2.34, 1.60, 7.27, repro,
2006-06-05,-1.05, 0.94, -6.68, 2.34, 1.60, 7.27, repro,
2006-06-06,1.39, 2.52, -13.26, 2.37, 1.60, 7.30, repro,
2006-06-07,1.22, -0.88, -16.93, 2.39, 1.60, 7.30, repro,
2006-06-08,0.33, -2.16, -10.62, 2.30, 1.58, 7.13, repro,
2006-06-09,-0.12, 0.84, -11.16, 2.29, 1.57, 7.10, repro,
2006-06-10,0.75, 0.30, -12.05, 2.29, 1.57, 7.13, repro,
2006-06-11,1.74, 1.49, -12.42, 2.32, 1.58, 7.18, repro,
2006-06-12,5.08, 0.40, -7.89, 2.30, 1.58, 7.13, repro,
2006-06-13,2.54, -1.15, -9.94, 2.32, 1.57, 7.12, repro,
2006-06-14,0.43, -1.77, -7.99, 2.28, 1.57, 7.08, repro,
2006-06-15,-0.10, 1.06, -6.90, 2.29, 1.57, 7.13, repro,
2006-06-16,-0.61, -1.17, -10.05, 2.31, 1.59, 7.20, repro,
2006-06-17,-0.98, -0.16, -9.89, 2.29, 1.58, 7.12, repro,
2006-06-18,-1.17, -1.89, -10.26, 2.33, 1.62, 7.27, repro,
2006-06-19,-0.09, 1.12, -14.34, 2.34, 1.63, 7.30, repro,
2006-06-20,0.13, 0.65, -14.40, 2.34, 1.63, 7.29, repro,
2006-06-21,-0.25, 0.85, -13.45, 2.33, 1.63, 7.31, repro,
2006-06-22,0.99, 2.86, -16.78, 2.34, 1.63, 7.33, repro,
2006-06-23,2.76, 2.33, -19.31, 2.33, 1.62, 7.26, repro,
2006-06-24,2.42, 3.30, -17.50, 2.51, 1.81, 8.15, repro,
2006-06-25,0.59, 0.38, -8.38, 2.80, 2.11, 9.65, repro,
2006-07-20,9.55, 3.57, -13.81, 5.22, 3.21, 14.95, repro,
2006-07-21,4.00, 0.31, -4.05, 2.71, 2.00, 9.21, repro,
2006-08-31,6.64, 2.42, -1.02, 4.41, 2.81, 12.39, repro,
2006-09-01,3.85, 0.95, -2.49, 2.41, 1.72, 7.80, repro,
2006-09-02,2.56, 2.58, -4.81, 2.65, 1.89, 8.43, repro,
2006-09-03,2.41, 1.94, -6.07, 2.65, 1.92, 8.47, repro,
2006-09-04,2.86, 2.75, -6.87, 2.71, 1.93, 8.54, repro,
2006-09-05,2.74, 3.34, -8.41, 2.69, 1.90, 8.57, repro,
2006-09-06,2.85, 1.81, -5.28, 2.59, 1.87, 8.25, repro,
2006-09-07,1.03, 2.66, -2.83, 2.50, 1.80, 8.11, repro,
2006-09-08,1.65, 2.88, 8.61, 2.53, 1.83, 8.23, repro,
2006-09-09,-0.13, 0.01, -2.73, 2.28, 1.63, 7.31, repro,
2006-09-10,-0.41, 2.91, -6.32, 2.27, 1.63, 7.28, repro,
2006-09-11,2.56, 2.85, -2.52, 2.33, 1.64, 7.41, repro,
2006-09-12,0.85, 1.44, -2.97, 2.37, 1.67, 7.46, repro,
2006-09-13,-1.05, 2.06, 6.36, 2.29, 1.62, 7.29, repro,
2006-09-14,1.21, 2.37, 0.10, 2.36, 1.72, 7.59, repro,
2006-09-15,1.56, -2.14, 0.76, 2.32, 1.61, 7.24, repro,
2006-09-16,1.23, 0.68, 1.26, 2.25, 1.58, 7.18, repro,
2006-09-17,-0.66, 1.39, 7.69, 2.25, 1.56, 7.10, repro,
2006-09-18,-1.98, 0.34, 7.24, 2.25, 1.59, 7.23, repro,
2006-09-19,0.80, 2.27, -0.29, 2.22, 1.59, 7.14, repro,
2006-09-20,-0.99, 0.19, 3.26, 2.22, 1.57, 7.10, repro,
2006-09-21,-2.50, 0.07, 4.25, 2.29, 1.63, 7.28, repro,
2006-09-22,0.39, 1.33, -1.55, 2.38, 1.67, 7.54, repro,
2006-09-23,-1.40, 3.19, -2.10, 2.31, 1.60, 7.24, repro,
2006-09-24,1.24, 2.16, -4.11, 2.33, 1.65, 7.42, repro,
2006-09-25,2.48, 2.44, -12.05, 2.38, 1.68, 7.56, repro,
2006-09-26,-0.34, 1.61, -14.34, 2.45, 1.74, 7.64, repro,
2006-09-27,1.53, 1.80, -11.70, 2.46, 1.74, 7.68, repro,
2006-09-28,1.57, 1.78, -11.06, 2.45, 1.73, 7.58, repro,
2006-09-29,0.71, 1.18, -0.91, 2.42, 1.71, 7.47, repro,
2006-09-30,-0.16, 1.27, -3.11, 2.37, 1.69, 7.52, repro,
2006-10-01,0.46, 0.25, -6.10, 2.27, 1.61, 7.23, repro,
2006-10-02,0.94, 0.99, -6.66, 2.33, 1.67, 7.42, repro,
2006-10-03,0.81, 0.77, -3.30, 2.38, 1.69, 7.60, repro,
2006-10-04,3.39, 2.03, -1.73, 2.26, 1.59, 7.16, repro,
2006-10-05,3.40, 2.25, -1.37, 2.27, 1.60, 7.21, repro,
2006-10-06,0.75, 0.81, -1.91, 2.27, 1.59, 7.18, repro,
2006-10-07,0.46, 1.71, -9.66, 2.38, 1.68, 7.62, repro,
2006-10-08,2.05, 0.80, -10.67, 2.32, 1.64, 7.36, repro,
2006-10-09,0.91, 1.34, -1.27, 2.31, 1.64, 7.30, repro,
2006-10-10,3.83, 2.99, -8.39, 2.31, 1.62, 7.42, repro,
2006-10-11,2.80, 3.95, -13.38, 2.31, 1.63, 7.43, repro,
2006-10-12,0.94, 3.24, -3.77, 2.28, 1.60, 7.21, repro,
2006-10-13,0.11, 2.37, -2.50, 2.24, 1.57, 7.15, repro,
2006-10-14,-0.12, 2.31, -1.36, 2.22, 1.57, 7.08, repro,
2006-10-15,-0.40, 1.13, 9.57, 2.28, 1.62, 7.29, repro,
2006-10-16,1.65, 2.51, 9.40, 2.23, 1.58, 7.12, repro,
2006-10-17,3.94, 2.10, -1.21, 2.30, 1.64, 7.52, repro,
2006-10-18,-3.09, 1.42, -0.31, 2.23, 1.57, 7.13, repro,
2006-10-19,-0.67, 2.09, 1.12, 2.51, 1.73, 7.90, repro,
2006-10-20,0.12, 3.39, 1.55, 2.70, 1.91, 8.87, repro,
2006-10-21,1.08, 2.94, -9.23, 2.37, 1.66, 7.61, repro,
2006-10-22,1.40, 3.89, -7.76, 2.39, 1.66, 7.75, repro,
2006-10-23,2.88, 0.78, -5.38, 2.32, 1.66, 7.44, repro,
2006-10-24,-3.49, 2.10, -6.84, 2.43, 1.65, 7.68, repro,
2006-10-25,-1.60, 3.48, -3.81, 2.59, 1.78, 8.10, repro,
2006-10-26,1.57, -0.56, 0.09, 2.28, 1.65, 7.48, repro,
2006-10-27,1.96, -0.42, -11.29, 2.26, 1.61, 7.23, repro,
2006-10-28,0.15, 1.91, -11.86, 2.39, 1.66, 7.61, repro,
2006-10-29,2.65, -0.01, -5.64, 2.25, 1.60, 7.32, repro,
2006-10-30,2.06, 0.20, -9.56, 2.18, 1.56, 7.02, repro,
2006-10-31,2.39, 0.82, -2.77, 2.37, 1.65, 7.64, repro,
2006-11-01,2.44, 0.95, -4.81, 2.37, 1.66, 7.66, repro,
2006-11-02,-0.03, -0.19, -0.42, 2.23, 1.58, 7.24, repro,
2006-11-03,-3.97, -2.33, -7.25, 2.54, 1.83, 7.99, repro,
2006-11-05,0.60, -1.60, -6.61, 2.55, 1.79, 8.12, repro,
2006-11-06,5.18, -4.95, -9.79, 2.22, 1.58, 7.16, repro,
2006-11-07,3.75, -4.04, -7.01, 3.81, 2.86, 12.70, repro,
2006-11-08,-0.36, -2.33, -4.90, 2.87, 1.97, 8.97, repro,
2006-11-09,1.66, -0.39, -7.67, 3.68, 2.84, 12.33, repro,
2006-11-10,-4.23, -0.70, -10.13, 6.31, 4.70, 23.89, repro,
2006-11-11,1.40, -4.98, -28.98, 6.37, 4.75, 23.90, repro,
2006-11-15,-2.99, -0.70, -7.73, 2.86, 2.02, 8.84, repro,
2006-11-17,-0.03, -6.48, -17.70, 4.79, 3.47, 17.52, repro,
2006-11-18,5.47, -5.48, -14.24, 4.14, 3.12, 15.81, repro,
2006-11-19,-1.01, -4.83, -18.89, 2.66, 1.88, 8.90, repro,
2006-11-20,-3.57, 3.94, 5.37, 5.37, 4.31, 19.38, repro,
2006-11-25,-0.80, -0.66, -16.15, 3.31, 2.23, 10.80, repro,
2006-11-26,2.11, -5.19, -24.04, 2.40, 1.70, 7.53, repro,
2006-11-27,-3.30, -1.29, -30.12, 5.59, 4.26, 22.13, repro,
2006-11-28,-1.30, 2.33, -14.02, 3.29, 2.52, 10.86, repro,
2006-11-29,-0.97, 0.00, -15.88, 2.26, 1.62, 7.27, repro,
2006-11-30,4.33, -2.16, -15.54, 2.20, 1.58, 7.11, repro,
2006-12-01,3.87, 0.86, -27.37, 2.42, 1.77, 7.95, repro,
2006-12-02,0.76, -1.96, 2.49, 10.74, 16.01, 40.22, repro,
2006-12-12,3.29, -3.18, -17.82, 2.40, 1.74, 7.92, repro,
2006-12-13,4.34, -9.02, -29.02, 2.99, 2.18, 9.36, repro,
2006-12-14,1.82, -3.71, -14.21, 2.19, 1.58, 7.03, repro,
2006-12-15,6.38, -3.38, -18.95, 2.92, 2.16, 9.94, repro,
2006-12-16,0.89, -1.97, -14.89, 2.31, 1.69, 7.44, repro,
2006-12-17,7.62, 2.80, -11.24, 3.55, 2.98, 12.53, repro,
2006-12-18,8.45, -0.51, -18.25, 10.32, 7.82, 31.65, repro,
2006-12-25,4.94, -6.61, -26.61, 2.50, 1.84, 8.36, repro,
2006-12-26,11.13, -4.03, -17.42, 4.71, 3.92, 15.47, repro,
2007-01-02,5.26, 4.05, -20.49, 4.37, 3.28, 14.49, repro,
2007-01-03,9.37, -5.58, -14.97, 2.19, 1.63, 7.20, repro,
2007-01-29,4.62, 3.87, -34.94, 5.32, 4.00, 15.72, repro,
2007-01-30,11.79, -3.72, -28.75, 2.15, 1.53, 6.80, repro,
2007-01-31,4.54, 3.22, -16.50, 4.33, 3.51, 13.98, repro,
2007-02-01,4.73, -5.72, -22.48, 2.21, 1.59, 7.05, repro,
2007-02-02,4.87, -4.97, -19.47, 2.18, 1.56, 6.93, repro,
2007-02-03,4.60, -8.10, -19.84, 2.20, 1.57, 7.03, repro,
2007-02-04,8.10, -9.68, -19.73, 2.14, 1.54, 6.82, repro,
2007-02-05,10.04, -1.49, -23.72, 2.15, 1.54, 6.80, repro,
2007-02-06,13.43, -5.70, -29.43, 2.16, 1.54, 6.85, repro,
2007-02-07,13.15, -2.53, -23.58, 2.16, 1.54, 6.84, repro,
2007-02-08,11.38, -0.83, -17.61, 2.17, 1.60, 7.01, repro,
2007-02-09,12.26, -3.63, -20.59, 2.17, 1.60, 7.03, repro,
2007-02-10,7.38, 0.99, -9.89, 3.09, 2.31, 9.93, repro,
2007-02-11,10.46, -0.20, -18.96, 2.16, 1.54, 6.87, repro,
2007-02-12,12.26, -2.62, -22.48, 2.16, 1.54, 6.83, repro,
2007-02-13,11.09, 0.18, -23.79, 2.14, 1.54, 6.81, repro,
2007-02-14,12.74, -2.94, -19.19, 2.14, 1.56, 6.87, repro,
2007-02-15,12.03, -0.17, -8.27, 3.50, 2.39, 10.72, repro,
2007-02-16,8.34, 3.68, -19.72, 3.92, 3.13, 13.21, repro,
2007-02-17,5.36, 1.33, -19.43, 2.58, 1.81, 7.91, repro,
2007-02-18,10.72, -2.25, -13.28, 2.16, 1.55, 6.89, repro,
2007-02-19,11.91, -3.99, -9.07, 2.13, 1.55, 6.84, repro,
2007-02-20,11.28, -0.91, 3.94, 3.23, 2.44, 10.69, repro,
2007-02-21,12.75, -9.75, -7.81, 2.45, 1.70, 7.67, repro,
2007-02-22,9.48, -3.05, -18.75, 2.54, 1.80, 7.87, repro,
2007-02-23,12.72, -5.22, -21.13, 2.27, 1.62, 7.21, repro,
2007-02-24,12.85, -6.01, -18.21, 3.21, 2.15, 9.62, repro,
2007-02-25,7.87, 0.04, -0.72, 3.51, 2.61, 11.48, repro,
2007-02-26,12.01, -2.56, -14.05, 2.15, 1.54, 6.83, repro,
2007-02-27,11.46, -4.27, -15.37, 2.18, 1.54, 6.89, repro,
2007-02-28,10.44, -4.28, -13.63, 2.17, 1.54, 6.84, repro,
2007-03-01,9.41, -5.11, -14.44, 2.23, 1.61, 7.07, repro,
2007-03-03,3.71, 4.71, -18.31, 4.05, 3.07, 12.83, repro,
2007-03-04,7.57, 1.82, -24.29, 2.22, 1.59, 7.07, repro,
2007-03-05,7.15, 3.65, -17.44, 2.23, 1.58, 7.05, repro,
2007-03-06,5.53, 1.53, -21.84, 2.22, 1.58, 7.02, repro,
2007-03-07,1.28, 1.33, -10.81, 2.20, 1.60, 7.04, repro,
2007-03-08,7.79, 0.69, -20.07, 2.21, 1.59, 6.98, repro,